Other Public Products
Issued by NWS Grand Forks, ND

Home | Current Version | Previous Version | Graphics & Text | Print | Product List | Glossary On
Versions: 1 2 3 4 5 6 7 8 9 10 11 12 13 14 15 16 17 18 19 20 21 22 23 24 25 26 27 28 29 30 31 32 33 34 35 36 37 38 39 40 41 42 43 44 45 46 47 48 49 50
000
FPUS83 KFGF 061731
OPUFGF
PRAIRIE TO PINES WEATHER ROUNDUP
NATIONAL WEATHER SERVICE EASTERN NORTH DAKOTA/GRAND FORKS ND
1200 PM CDT MON JUL 06 2015

 **SATELLITE DATA USED TO AUGMENT SKY COVER AT AUTOMATED STATIONS**
 *****  WEATHER ACROSS EASTERN NORTH DAKOTA  *****

CITY           SKY/WX    TMP DP  RH WIND       PRES   REMARKS
GRAND FORKS    PTSUNNY   62  48  60 N17G23    30.10S
GRAND FORKS AF SUNNY     62  48  59 N17       30.11R
GRAND CITY NWS   N/A     63 N/A N/A N21         N/A
BUXTON         NOT AVBL
DEVILS LAKE    CLOUDY    61  46  59 N12       30.13S
FARGO          MOSUNNY   65  48  54 N21       30.07R
WAHPETON ARPT  PTSUNNY   63  46  55 N13G26    30.06R
$$

 *****  WEATHER ACROSS CENTRAL AND WESTERN NORTH DAKOTA  *****

CITY           SKY/WX    TMP DP  RH WIND       PRES   REMARKS
JAMESTOWN      PTSUNNY   65  52  62 N10       30.12R
BISMARCK       CLOUDY    68  52  56 NW12      30.16R HAZE
MINOT          CLOUDY    61  51  70 N7        30.17R HAZE
MINOT AFB      MOSUNNY   63  54  72 N6        30.17S
GARRISON         N/A     64  53  67 N5        30.16R
WILLISTON      PTSUNNY   66  51  58 N10       30.20S HAZE
DICKINSON      PTSUNNY   66  50  56 NW9       30.18S
HETTINGER      CLOUDY    66  50  56 N10       30.21S
$$

 *****  OTHER OBSERVATIONS NORTHEAST NORTH DAKOTA  *****

CITY           SKY/WX    TMP DP  RH WIND       PRES   REMARKS
WALHALLA       FAIR      59  54  82 MISG      30.12F
LANGDON        PTSUNNY   61  48  63 NW13      30.14S
CAVALIER       PTSUNNY   59  48  67 N13G22    30.12S
GRAFTON        PTSUNNY   61  50  67 N18G25    30.11S
CANDO          CLOUDY    59  48  67 N12G17    30.15F
FORT TOTTEN    NOT AVBL
ROLLA          CLOUDY    57  46  67 NW14      30.17S
RUGBY          NOT AVBL
 ***** THE ABOVE OBSERVATIONS ARE NON NWS ARE NOT QUALITY
        CONTROLLED AND MAY MIS-REPORT RAIN FOR SNOW...
$$

 *****  OTHER OBSERVATIONS SOUTHEAST NORTH DAKOTA *****

CITY           SKY/WX    TMP DP  RH WIND       PRES   REMARKS
COOPERSTOWN    NOT AVBL
VALLEY CITY    FAIR      64  50  59 N15G22    30.11R
OAKES            N/A     66  55  68 N14       30.10S
GWINNER        FAIR      66  52  59 N15G21    30.09S
BUFFALO        NOT AVBL
WYNDMERE         N/A     66  52  59 N14         N/A
 ***** THE ABOVE OBSERVATIONS ARE NON NWS ARE NOT QUALITY
       CONTROLLED AND MAY MIS-REPORT RAIN FOR SNOW...
$$

  *****  WEATHER ACROSS NORTHERN MINNESOTA  *****

CITY           SKY/WX    TMP DP  RH WIND       PRES   REMARKS
FLAG ISLAND    MOSUNNY   57  45  62 NW23      30.03S
WARROAD        CLOUDY    57  48  72 NW13G20   30.07R
ROSEAU         CLOUDY    57  48  72 NW16      30.07R
HALLOCK        CLOUDY    57  50  77 N9        30.10S
THF RVR FALLS  PTSUNNY   61  45  55 NW16G24   30.08S
HALSTAD        NOT AVBL
FOSSTON        MOSUNNY   61  48  63 N14G22    30.07S
BAUDETTE       LGT RAIN  57  46  66 NW18G28   30.02S
WASKISH        PTSUNNY   57  46  67 NW8G16    30.03R
CROOKSTON      MOSUNNY   63  48  59 N18G25    30.09S
$$
  *****  WEATHER ACROSS CENTRAL AND WEST MINNESOTA  *****

CITY           SKY/WX    TMP DP  RH WIND       PRES   REMARKS
BEMIDJI        MOSUNNY   59  45  59 N13G25    30.02S
PARK RAPIDS    SUNNY     67  50  54 NW17G25   30.00R
WADENA         SUNNY     66  54  63 N16       29.99S
DETROIT LAKES  MOSUNNY   61  46  59 N10G24    30.06S
MOORHEAD       MOSUNNY   64  48  55 N23       30.07F
FERGUS FALLS   MOSUNNY   64  50  59 N14G28    30.03S
ELBOW LAKE     FAIR      67  54  63 N17G26    30.02R
MORRIS MN      MOSUNNY   70  57  64 N21G26    30.00R HAZE
STAPLES        PTSUNNY   64  54  68 N14G23    29.99R HAZE
WHEATON        MOSUNNY   64  54  68 NW18G26   30.06R
$$
  *****  WEATHER ELSEWHERE ACROSS MINNESOTA  *****

CITY           SKY/WX    TMP DP  RH WIND       PRES   REMARKS
DULUTH         LGT RAIN  63  59  87 N6        29.92R VSB 3/4
INTRNTL FALLS  MOSUNNY   62  47  57 NW13      29.97S
ELY            CLOUDY    57  54  88 NW8       29.93S HAZE
CLOQUET        LGT RAIN  63  57  82 N10G17    29.93R
BRAINERD       CLOUDY    64  57  78 N20G25    29.97R HAZE
HIBBING        CLOUDY    61  55  81 NW13      29.94S HAZE
ALEXANDRIA     CLOUDY    68  57  68 N14G23    30.01R HAZE
SAINT CLOUD    LGT RAIN  64  62  93 N10       29.92R FOG
MINNEAPOLIS    LGT RAIN  64  62  93 N22G31    29.88R FOG
$$

  *****  WEATHER ACROSS SOUTH DAKOTA  *****

CITY           SKY/WX    TMP DP  RH WIND       PRES   REMARKS
SIOUX FALLS    CLOUDY    70  63  78 N17G28    29.97R HAZE
BROOKINGS      CLOUDY    66  59  77 N22       30.03R
WATERTOWN      CLOUDY    67  58  72 N21G28    30.04R HAZE
HURON          CLOUDY    72  62  71 N21G26    30.04R HAZE
SISSETON         N/A     67  54  63 N22G29    30.05R
ABERDEEN       CLOUDY    68  56  65 N16       30.09R HAZE
MITCHELL       PTSUNNY   73  61  65 MISG      30.03R HAZE
PIERRE         MOSUNNY   73  55  53 N18       30.11R HAZE
MOBRIDGE       SUNNY     72  54  53 N15       30.12R
RAPID CITY     PTSUNNY   64  55  72 NW13      30.24S
$$

  *****  SOME WEATHER IN NEARBY STATES *****

CITY           SKY/WX    TMP DP  RH WIND       PRES   REMARKS
GLASGOW MT     MOSUNNY   66  47  50 CALM      30.21F
GREAT FALLS MT MOSUNNY   60  48  64 SE6       30.21F
CHEYENNE WY    LGT RAIN  55  53  93 NE7       30.33R FOG
SCOTTSBLUFF NE CLOUDY    65  54  67 NE10      30.25S HAZE
OMAHA NE       CLOUDY    76  71  85 CALM      29.90R
DES MOINES IA  LGT RAIN  78  74  87 W9        29.88F FOG
DAVENPORT IA   CLOUDY    76  72  87 S7        29.91F
CHICAGO IL     CLOUDY    82  69  64 S15G25    29.94F
EAU CLAIRE WI  CLOUDY    74  69  85 S8        29.78F
LA CROSSE WI   CLOUDY    76  70  82 S8        29.81F
$$

  *****  SOME NATIONAL WEATHER *****

CITY           SKY/WX    TMP DP  RH WIND       PRES   REMARKS
LA GUARDIA NY  CLOUDY    82  61  48 S13G21    30.15F
RALEIGH NC     MOSUNNY   85  70  60 SW12G18   30.12F
ATLANTA GA     PTSUNNY   79  69  71 CALM      30.18F
NEW ORLEANS LA CLOUDY    87  74  64 S10       30.17S HX  95
OKLAHOMA CITY  PTSUNNY   85  74  69 S16G24    29.96S HX  92
ALBUQUERQUE NM MOSUNNY   79  54  41 W8        30.18S
SALT LAKE CITY MOSUNNY   84  58  40 NW7       30.11S
LOS ANGELES CA CLOUDY    64  60  87 SW5       30.07S
BOISE ID       SUNNY     83  50  31 N6        30.08S
SEATTLE WA     PTSUNNY   69  55  60 VRB6      30.02S
$$

*** WEATHER ACROSS MANITOBA...SASKATCHEWAN AND ONTARIO ***
                ***ONTARIO***

CITY           SKY/WX    TMP DP  RH WIND       PRES   REMARKS
GERALDTON      CLOUDY    63  57  82 SW13      29.85S HAZE
THUNDER BAY    CLOUDY    64  61  88 VRB2      29.86F FOG
SIOUX LOOKOUT  CLOUDY    52  45  76 NW10      29.98S
TORONTO        PTSUNNY   77  63  61 E7        30.07F
BIG TROUT LK   CLOUDY    48  43  81 NW20G29   29.82R
PICKLE LAKE    PTSUNNY   55  41  58 NW8G24    29.90F
DRYDEN         CLOUDY    52  43  71 NW10G18   29.99R
KENORA         PTSUNNY   57  41  54 NW17G23   30.03F
$$
                *** MANITOBA***

CITY           SKY/WX    TMP DP  RH WIND       PRES   REMARKS
BRANDON        PTSUNNY   61  46  59 NW12      30.17S
DAUPHIN        PTSUNNY   59  43  55 NW5       30.18S
ISLAND LAKE    PTSUNNY   57  41  54 NW16G25   30.01R
PILOT MOUND      N/A     59  48  67 NW10G17     N/A
THE PAS        MOSUNNY   66  39  37 NW9G17    30.12F
THOMPSON       MOSUNNY   64  43  45 W13G20    30.02F
WINNIPEG       PTSUNNY   59  46  63 N15G21    30.13S
LYNN LAKE      SUNNY     70  43  37 W10G17    30.01F
CHURCHILL      MOSUNNY   54  43  66 N9        29.89S
GILLAM         MOSUNNY   59  39  47 NW18G25   29.94S
$$
                ***SASKATCHEWAN***

CITY           SKY/WX    TMP DP  RH WIND       PRES   REMARKS
ESTEVAN        PTSUNNY   64  45  48 N13G18    30.20S
KINDERSLEY     PTSUNNY   59  48  67 SW3       30.20F
LLOYDMINSTER   CLOUDY    59  46  63 SW5       30.18S
PRINCE ALBERT    N/A     61  48  63 W5        30.18S SMOKE
REGINA         MOSUNNY   64  41  42 NE7       30.21F
YORKTON        SUNNY     61  41  48 N7        30.19F



USA.gov is the U.S. government's official web portal to all federal, state and local government web resources and services.